Winona, MN

8:46 PM CST on December 10, 2016 (GMT -0600)
Winona Municipal-Conrad

Weather History for KONA - September, 2013

Change the Weather History Date:

Friday, September 27, 2013

  Actual Average Record
Temperature  
Mean Temperature 70 °F -  
Max Temperature 80 °F 70 °F 80 °F (2013)
Min Temperature 59 °F 51 °F 33 °F (2012)
Cooling Degree Days 4    
Growing Degree Days 20 (Base 50)    
Moisture  
Dew Point 55 °F    
Average Humidity 61    
Maximum Humidity 77    
Minimum Humidity 48    
Precipitation  
Precipitation 0.00 in - - ()
Sea Level Pressure  
Sea Level Pressure 29.98 in    
Wind  
Wind Speed 7 mph (SSE)    
Max Wind Speed 17 mph    
Max Gust Speed 25 mph    
Visibility 10 miles    
Events      
Averages and records for this station are not official NWS values.
T = Trace of Precipitation, MM = Missing Value Source: NWS Daily Summary

Daily Weather History Graph

Daily Weather History Graph

Search for Another Location

Airport or City:

Trip Planner

Search our weather history database for the weather conditions in past years. The results will help you decide how hot, cold, wet, or windy it might be!

Date:

Astronomy

Sep. 27, 2013 Rise Set
Actual Time 7:00 AM CDT 6:54 PM CDT
Civil Twilight 6:31 AM CDT 7:23 PM CDT
Nautical Twilight 5:57 AM CDT 7:56 PM CDT
Astronomical Twilight 5:23 AM CDT 8:30 PM CDT
Moon No Moon Rise 2:44 PM CDT (9/27)
Length of Visible Light 12h 51m
Length of Day
11h 54m
Last Quarter, 45% of the Moon is Illuminated
Sep 27
Last Quarter
Oct 4
New
Oct 11
First Quarter
Oct 18
Full
Oct 26
Last Quarter

Hourly Weather History & Observations

Time (CDT) Temp. Heat Index Dew Point Humidity Pressure Visibility Wind Dir Wind Speed Gust Speed Precip Events Conditions
12:16 AM 62.6 °F - 53.6 °F 72% 29.99 in 10.0 mi ESE 6.9 mph - N/A   Clear
12:36 AM 60.8 °F - 53.6 °F 77% 29.99 in 10.0 mi ESE 8.1 mph - N/A   Clear
12:56 AM 62.6 °F - 53.6 °F 72% 29.99 in 10.0 mi SE 8.1 mph - N/A   Clear
1:16 AM 60.8 °F - 53.6 °F 77% 30.00 in 10.0 mi SE 6.9 mph - N/A   Clear
1:36 AM 60.8 °F - 53.6 °F 77% 30.01 in 10.0 mi SE 6.9 mph - N/A   Clear
1:56 AM 60.8 °F - 53.6 °F 77% 30.02 in 10.0 mi SE 3.5 mph - N/A   Clear
2:16 AM 60.8 °F - 53.6 °F 77% 30.02 in 10.0 mi SSE 3.5 mph - N/A   Clear
2:36 AM 60.8 °F - 53.6 °F 77% 30.02 in 10.0 mi SSE 3.5 mph - N/A   Clear
2:56 AM 60.8 °F - 53.6 °F 77% 30.02 in 10.0 mi Calm Calm - N/A   Clear
3:16 AM 60.8 °F - 51.8 °F 72% 30.01 in 10.0 mi SE 6.9 mph - N/A   Clear
3:36 AM 60.8 °F - 51.8 °F 72% 30.01 in 10.0 mi SE 5.8 mph - N/A   Clear
3:56 AM 60.8 °F - 51.8 °F 72% 30.01 in 10.0 mi SE 6.9 mph - N/A   Clear
4:16 AM 60.8 °F - 51.8 °F 72% 30.01 in 10.0 mi SE 6.9 mph - N/A   Clear
4:37 AM 60.8 °F - 51.8 °F 72% 30.01 in 10.0 mi SE 6.9 mph - N/A   Clear
4:56 AM 59.0 °F - 51.8 °F 77% 30.01 in 10.0 mi SE 6.9 mph - N/A   Clear
5:16 AM 59.0 °F - 51.8 °F 77% 30.02 in 10.0 mi SE 4.6 mph - N/A   Clear
5:37 AM 60.8 °F - 51.8 °F 72% 30.02 in 10.0 mi SE 4.6 mph - N/A   Clear
5:56 AM 59.0 °F - 50.0 °F 72% 30.02 in 10.0 mi SE 6.9 mph - N/A   Clear
6:16 AM 59.0 °F - 50.0 °F 72% 30.02 in 10.0 mi SE 8.1 mph - N/A   Clear
6:37 AM 59.0 °F - 51.8 °F 77% 30.02 in 10.0 mi SE 8.1 mph - N/A   Clear
6:56 AM 59.0 °F - 51.8 °F 77% 30.02 in 10.0 mi SE 6.9 mph - N/A   Clear
7:16 AM 59.0 °F - 51.8 °F 77% 30.03 in 10.0 mi SE 6.9 mph - N/A   Clear
7:37 AM 59.0 °F - 51.8 °F 77% 30.02 in 10.0 mi SE 6.9 mph - N/A   Clear
7:56 AM 60.8 °F - 51.8 °F 72% 30.02 in 10.0 mi SE 10.4 mph - N/A   Clear
8:16 AM 60.8 °F - 51.8 °F 72% 30.02 in 10.0 mi SE 8.1 mph - N/A   Clear
8:36 AM 62.6 °F - 51.8 °F 68% 30.02 in 10.0 mi SE 9.2 mph - N/A   Clear
8:56 AM 62.6 °F - 53.6 °F 72% 30.02 in 10.0 mi SE 9.2 mph - N/A   Clear
9:16 AM 66.2 °F - 53.6 °F 64% 30.02 in 10.0 mi ESE 9.2 mph - N/A   Clear
9:36 AM 69.8 °F - 55.4 °F 60% 30.02 in 10.0 mi SE 9.2 mph - N/A   Clear
9:56 AM 69.8 °F - 55.4 °F 60% 30.03 in 10.0 mi SE 5.8 mph - N/A   Clear
10:16 AM 73.4 °F - 57.2 °F 57% 30.03 in 10.0 mi SSE 3.5 mph - N/A   Clear
10:36 AM 73.4 °F - 57.2 °F 57% 30.03 in 10.0 mi SSE 5.8 mph - N/A   Clear
10:56 AM 75.2 °F - 57.2 °F 53% 30.02 in 10.0 mi SSE 12.7 mph 16.1 mph N/A   Clear
11:16 AM 73.4 °F - 57.2 °F 57% 30.02 in 10.0 mi SSE 4.6 mph 19.6 mph N/A   Clear
11:36 AM 77.0 °F - 59.0 °F 54% 30.02 in 10.0 mi South 9.2 mph - N/A   Clear
11:56 AM 78.8 °F - 59.0 °F 51% 30.00 in 10.0 mi SSE 12.7 mph 19.6 mph N/A   Clear
12:16 PM 78.8 °F - 60.8 °F 54% 30.00 in 10.0 mi South 6.9 mph 17.3 mph N/A   Clear
12:36 PM 80.6 °F 81.1 °F 59.0 °F 48% 29.99 in 10.0 mi SSE 9.2 mph 16.1 mph N/A   Clear
12:56 PM 80.6 °F 81.1 °F 59.0 °F 48% 29.98 in 10.0 mi South 9.2 mph 18.4 mph N/A   Clear
1:16 PM 80.6 °F 81.1 °F 59.0 °F 48% 29.98 in 10.0 mi South 9.2 mph 19.6 mph N/A   Clear
1:36 PM 80.6 °F 81.1 °F 59.0 °F 48% 29.97 in 10.0 mi SSW 10.4 mph 20.7 mph N/A   Clear
1:56 PM 80.6 °F 81.1 °F 59.0 °F 48% 29.96 in 10.0 mi South 6.9 mph 18.4 mph N/A   Clear
2:16 PM 80.6 °F 81.1 °F 59.0 °F 48% 29.95 in 10.0 mi SSE 15.0 mph 24.2 mph N/A   Clear
2:36 PM 80.6 °F 81.1 °F 59.0 °F 48% 29.94 in 10.0 mi South 6.9 mph 20.7 mph N/A   Clear
2:56 PM 80.6 °F 81.1 °F 59.0 °F 48% 29.94 in 10.0 mi South 10.4 mph 17.3 mph N/A   Clear
3:16 PM 80.6 °F 81.1 °F 59.0 °F 48% 29.93 in 10.0 mi SSE 12.7 mph 18.4 mph N/A   Clear
3:36 PM 78.8 °F - 59.0 °F 51% 29.92 in 10.0 mi SSE 8.1 mph 18.4 mph N/A   Clear
3:56 PM 80.6 °F 81.1 °F 59.0 °F 48% 29.91 in 10.0 mi SSE 13.8 mph 19.6 mph N/A   Clear
4:16 PM 80.6 °F 81.1 °F 59.0 °F 48% 29.91 in 10.0 mi SSE 11.5 mph 19.6 mph N/A   Clear
4:36 PM 80.6 °F 81.1 °F 59.0 °F 48% 29.91 in 10.0 mi SSE 10.4 mph 23.0 mph N/A   Clear
4:56 PM 80.6 °F 81.1 °F 59.0 °F 48% 29.91 in 10.0 mi SSE 17.3 mph 25.3 mph N/A   Clear
5:17 PM 80.6 °F 81.1 °F 59.0 °F 48% 29.93 in 10.0 mi SSE 3.5 mph - N/A   Scattered Clouds
5:36 PM 78.8 °F - 59.0 °F 51% 29.93 in 10.0 mi SSE 9.2 mph 18.4 mph N/A   Clear
5:56 PM 78.8 °F - 59.0 °F 51% 29.94 in 10.0 mi South 5.8 mph 18.4 mph N/A   Clear
6:17 PM 78.8 °F - 59.0 °F 51% 29.94 in 10.0 mi South 6.9 mph - N/A   Clear
6:36 PM 77.0 °F - 59.0 °F 54% 29.94 in 10.0 mi SE 8.1 mph - N/A   Clear
6:56 PM 73.4 °F - 59.0 °F 61% 29.94 in 10.0 mi SE 6.9 mph - N/A   Clear
7:16 PM 73.4 °F - 59.0 °F 61% 29.94 in 10.0 mi SSE 6.9 mph - N/A   Clear
7:36 PM 73.4 °F - 59.0 °F 61% 29.94 in 10.0 mi SSE 8.1 mph - N/A   Clear
7:56 PM 73.4 °F - 59.0 °F 61% 29.94 in 10.0 mi SE 5.8 mph - N/A   Clear
8:16 PM 73.4 °F - 59.0 °F 61% 29.94 in 10.0 mi SSE 5.8 mph - N/A   Clear
8:36 PM 73.4 °F - 59.0 °F 61% 29.94 in 10.0 mi SE 8.1 mph - N/A   Clear
8:56 PM 71.6 °F - 55.4 °F 57% 29.94 in 10.0 mi SSE 5.8 mph - N/A   Clear
9:16 PM 69.8 °F - 55.4 °F 60% 29.94 in 10.0 mi SE 6.9 mph - N/A   Clear
9:36 PM 69.8 °F - 53.6 °F 56% 29.94 in 10.0 mi SE 8.1 mph - N/A   Clear
9:56 PM 69.8 °F - 53.6 °F 56% 29.94 in 10.0 mi SSE 8.1 mph - N/A   Clear
10:16 PM 69.8 °F - 51.8 °F 53% 29.94 in 10.0 mi SE 8.1 mph - N/A   Clear
10:36 PM 69.8 °F - 51.8 °F 53% 29.94 in 10.0 mi SE 5.8 mph - N/A   Clear
10:56 PM 69.8 °F - 53.6 °F 56% 29.94 in 10.0 mi SE 6.9 mph - N/A   Clear
11:16 PM 69.8 °F - 53.6 °F 56% 29.94 in 10.0 mi SE 5.8 mph - N/A   Clear
11:36 PM 69.8 °F - 51.8 °F 53% 29.93 in 10.0 mi SE 5.8 mph - N/A   Clear
11:56 PM 69.8 °F - 51.8 °F 53% 29.93 in 10.0 mi SE 5.8 mph - N/A   Clear